Location: Eurasberg
(48.3353°N, 11.0839°E)
Time: 08:27:15
(UTC+00:00)

ATLAS CENTAUR R/B - Pass Details

Date: 18 January 2026
Orbit: 306 x 350 km, 64.6° (Epoch: 17 February)

Event Time Altitude Azimuth Distance (km) Brightness Sun altitude
Exits shadow 04:10:43 12° 123° (ESE) 1,224 3.8 -27.6°
Drops below altitude 10° 04:11:02 10° 125° (SE) 1,355 4.0 -27.5°
Sets 04:13:02 0° 131° (SE) 2,177 5.1 -27.2°
